{"data":{"norad_id":69855,"epoch":"2026-09-19T18:34:06.441024Z","epoch_age_seconds":84384,"freshness":"FRESH","line1":"1 69855U 26155H   26262.77368566 -.01813144  00000+0 -29777+1 0  9993","line2":"2 69855  89.0078  53.8014 0036319  16.6338 343.5996 13.51339567 10628","mean_motion":13.51339567,"eccentricity":0.0036319,"inclination_deg":89.0078,"raan_deg":53.8014,"arg_perigee_deg":16.6338,"mean_anomaly_deg":343.5996,"bstar":-2.9777,"rev_number":1062,"period_min":106.56092925606,"perigee_km":1040.2928435973,"apogee_km":1094.3752562096,"semimajor_km":7445.4710499035,"source":"CELESTRAK","updated_at":"2026-09-20T09:00:25.135503Z"}}